Location: Bazugues
(43.4465°N, 0.3432°E)
Time: 17:19:40
(UTC+00:00)

Cosmos 1741 Rocket - Visible Passes

Search period start: 11 April 2026 00:00
Search period end: 21 April 2026 00:00
Orbit: 757 x 778 km, 74.0° (Epoch: 11 April)

Date Brightness Start Highest point End Pass type
(mag) Time Alt. Az. Time Alt. Az. Time Alt. Az.
11 Apr 6.1 00:53:47 10° N 00:57:50 22° NE 00:57:59 22° ENE visible
11 Apr 5.0 02:35:04 10° NNW 02:38:11 34° NW 02:38:11 34° NW visible
12 Apr 6.6 00:17:26 10° NNE 00:20:09 14° NE 00:20:50 14° ENE visible
12 Apr 5.0 01:57:42 10° NNW 02:01:02 40° NNW 02:01:02 40° NNW visible
13 Apr 5.3 01:20:30 10° NNW 01:23:59 37° NNE 01:23:59 37° NNE visible
13 Apr 6.1 03:03:28 10° NW 03:04:12 13° NW 03:04:12 13° NW visible
14 Apr 5.7 00:43:30 10° N 00:47:00 29° NE 00:47:00 29° NE visible
14 Apr 5.9 02:25:31 10° NW 02:27:13 19° NW 02:27:13 19° NW visible
15 Apr 6.2 00:06:43 10° N 00:10:04 20° NE 00:10:04 20° NE visible
15 Apr 5.6 01:47:56 10° NNW 01:50:17 26° NW 01:50:17 26° NW visible
15 Apr 6.5 23:30:25 10° NNE 23:32:59 13° NE 23:33:10 13° NE visible
16 Apr 5.5 01:10:34 10° NNW 01:13:23 32° NNW 01:13:23 32° NNW visible
17 Apr 5.6 00:33:24 10° N 00:36:32 33° N 00:36:32 33° N visible
17 Apr 6.3 02:16:16 10° NW 02:16:45 12° NW 02:16:45 12° NW visible
17 Apr 5.8 23:56:24 10° N 23:59:42 27° NNE 23:59:42 27° NNE visible
18 Apr 6.0 01:38:21 10° NW 01:39:56 18° NW 01:39:56 18° NW visible
18 Apr 6.1 23:19:39 10° N 23:22:54 20° NE 23:22:54 20° NE visible
19 Apr 5.7 01:00:48 10° NNW 01:03:08 26° NW 01:03:08 26° NW visible
19 Apr 6.4 22:43:26 10° NNE 22:45:49 13° NE 22:46:07 13° NE visible
20 Apr 5.5 00:23:27 10° NNW 00:26:22 34° NNW 00:26:22 34° NNW visible
20 Apr 5.5 23:46:17 10° N 23:49:37 34° NNE 23:49:37 34° NNE visible
